Location: Oriwa
(40.7500°S, 175.3333°E)
Time: 12:17:33
(UTC+00:00)

ADEOS II - Pass Details

Date: 03 February 2023
Orbit: 799 x 799 km, 98.6° (Epoch: 30 March)

Event Time Altitude Azimuth Distance (km) Brightness Sun altitude
Exits shadow 12:23:36 21° 114° (ESE) 1,742 4.0 -32.7°
Maximum altitude 12:23:47 21° 117° (ESE) 1,741 4.0 -32.7°
Drops below altitude 10° 12:27:41 10° 164° (SSE) 2,407 5.3 -32.7°
Sets 12:30:32 0° 179° (S) 3,345 6.4 -32.7°
